Wind_Speed
38 39 39 39 39 39 39 38 38 38 39 39 38 39 40 40 41 41 41 41 42 42 42 43 44 44 43 43 42 42 43 43 44 43 44 44 45 46 46 48 48 47 47
37 37 37 37 37 37 37 37 37 37 37 38 37 37 37 38 38 39 41 41 41 42 42 43 43 42 42 43 42 42 42 43 43 44 44 45 45 45 45 45 45 46 46
35 36 36 36 35 35 35 35 36 36 36 36 36 36 36 37 37 37 39 40 40 40 41 41 42 42 41 41 41 42 42 41 42 43 43 44 44 44 44 44 44 45 45
35 35 35 34 34 33 34 35 35 36 36 35 36 35 36 36 36 36 37 38 38 39 39 40 40 40 40 40 40 40 40 40 41 42 42 42 43 43 43 43 43 43 43
34 34 34 34 34 33 34 34 35 35 36 36 35 35 35 35 35 35 36 36 37 37 37 38 38 38 39 39 39 40 40 40 41 41 41 41 41 41 42 42 43 42 42
33 33 32 33 33 33 34 34 34 35 35 35 35 34 34 34 35 34 34 34 35 36 36 36 37 37 38 38 39 39 40 40 40 41 41 41 41 41 41 41 41 40 40
31 31 31 32 32 33 33 33 33 33 33 33 34 33 33 33 33 33 33 33 34 35 35 35 36 36 37 38 38 38 39 40 40 41 41 40 40 40 40 39 39 39 38
32 31 31 31 31 31 32 32 32 32 32 32 32 32 32 32 32 33 33 33 34 34 33 34 35 35 35 36 37 37 38 39 40 40 40 40 39 38 38 38 37 37 37
31 31 30 31 31 31 31 30 31 31 31 32 32 32 32 32 32 33 32 32 32 33 33 33 34 34 34 35 36 37 37 37 38 38 39 38 38 39 39 38 37 37 37
31 31 31 31 32 31 31 31 31 31 31 31 31 31 31 31 32 32 31 31 32 32 33 32 32 33 34 34 35 35 36 36 36 36 36 36 37 37 38 37 37 37 36
32 32 31 31 31 31 31 30 30 31 31 31 31 30 30 30 31 31 32 31 31 31 31 32 32 32 33 34 35 35 35 35 35 36 36 36 36 36 36 37 37 36 36
31 31 30 30 30 30 31 30 30 30 30 31 31 31 31 30 30 31 31 31 30 30 30 32 32 33 33 34 34 35 35 35 35 35 35 36 35 36 36 36 36 36 36
30 30 30 29 29 30 31 31 30 29 30 30 30 30 30 30 30 30 30 30 30 29 30 31 32 33 33 34 35 35 35 35 35 35 36 35 36 36 36 36 36 36 36
29 29 29 29 29 30 30 29 30 30 30 30 30 30 31 31 30 30 30 30 30 30 30 31 32 33 33 34 35 34 34 34 34 34 34 34 34 35 34 34 33 33 34
29 29 29 29 28 29 29 28 28 29 29 30 30 30 30 30 30 29 29 30 30 30 31 31 31 32 33 33 33 32 32 32 32 31 31 31 32 31 31 31 31 32 32
27 28 28 28 27 27 27 27 27 28 28 29 29 29 29 29 29 28 29 29 30 30 30 30 30 31 31 31 31 30 30 30 30 30 30 30 30 30 30 30 30 30 30
26 26 26 26 26 26 26 27 27 27 27 28 28 28 28 28 27 27 28 28 28 29 29 29 29 29 29 29 29 29 28 28 28 28 28 28 28 29 28 28 28 28 28
25 25 25 25 25 25 25 26 26 26 27 27 27 27 26 26 26 27 27 27 27 28 29 29 29 28 27 28 28 28 27 27 27 27 27 27 27 27 27 26 27 27 27
25 25 25 25 25 24 25 25 25 25 26 25 25 25 25 25 26 26 26 26 26 27 27 27 27 27 26 26 26 26 26 26 26 25 25 25 25 25 25 25 25 25 24
24 24 24 24 24 24 25 25 24 24 24 24 23 23 24 24 24 24 25 25 25 25 25 25 24 24 23 24 24 24 24 24 24 24 24 24 24 24 23 23 23 23 22
23 23 23 23 23 23 24 24 23 23 23 22 21 21 21 22 22 23 23 23 24 24 23 22 21 22 22 22 22 22 23 23 23 22 22 22 22 22 22 22 21 20 19
23 23 22 22 23 23 22 22 22 21 21 21 20 20 20 21 21 21 21 21 21 20 20 20 20 21 21 21 21 21 21 21 21 20 20 20 20 20 20 19 18 17 16
22 22 22 22 21 21 20 20 20 20 20 19 19 19 19 20 20 19 19 19 19 19 19 19 20 20 20 20 19 19 19 19 19 18 18 18 18 18 17 17 16 15 15
21 21 21 20 20 20 19 19 19 19 19 18 18 18 17 17 17 17 17 17 17 17 18 18 19 19 18 18 17 17 17 17 17 17 17 17 16 16 16 15 14 14 14
18 19 19 18 18 18 18 18 18 18 17 17 17 16 16 16 16 16 15 15 16 16 17 17 17 17 16 16 15 15 16 16 16 16 16 15 14 14 13 13 13 13 13
17 17 17 17 17 17 16 16 16 16 15 15 16 16 16 15 15 14 14 15 15 15 15 14 15 15 14 14 14 14 15 15 15 14 14 13 12 12 12 12 12 12 12
Wind_Direction
273 273 271 270 269 267 266 265 266 266 266 266 266 266 265 264 262 262 263 265 266 267 268 270 271 272 272 273 273 275 276 277 278 279 280 281 280 280 281 281 282 282 283
274 273 272 270 268 268 267 267 267 267 267 267 266 266 266 266 264 263 263 265 267 268 269 270 271 271 272 273 273 275 276 277 278 279 280 281 282 282 282 282 283 283 284
275 275 272 270 268 267 267 267 267 267 267 267 268 268 268 267 265 265 265 265 267 268 268 269 270 270 272 273 274 275 277 278 279 280 281 282 283 283 283 283 284 284 285
276 276 272 270 268 267 267 266 266 266 266 267 269 269 269 268 266 266 266 266 267 268 269 269 270 271 273 274 274 275 277 279 280 281 282 283 284 284 285 285 285 285 285
276 276 272 269 267 267 267 267 267 266 266 266 267 268 268 268 267 266 266 267 267 269 269 269 270 271 273 274 275 276 278 279 280 282 283 284 285 286 287 287 286 286 285
276 276 273 269 268 267 268 267 267 267 266 265 265 266 267 268 266 265 266 267 268 269 270 270 270 271 273 274 276 278 279 280 281 282 284 285 286 288 288 289 288 287 286
276 276 273 270 268 268 268 269 268 268 267 265 265 266 267 268 266 265 265 267 269 269 269 270 272 272 273 275 276 278 280 280 281 283 284 286 287 287 288 288 288 288 289
274 273 272 270 268 268 268 269 269 269 267 265 266 266 267 268 267 266 265 266 267 268 269 271 273 273 274 277 278 279 280 281 282 283 283 285 285 286 287 289 289 289 291
273 271 270 268 268 268 267 267 269 270 268 266 266 266 267 268 267 266 267 267 266 267 269 272 274 275 276 278 279 279 281 282 283 284 284 285 285 285 286 287 288 289 290
271 270 268 268 268 267 267 267 268 268 267 265 266 266 267 269 269 268 267 267 267 267 270 272 276 276 277 278 280 280 281 283 283 285 286 286 287 287 287 288 290 290 291
270 271 269 268 268 267 267 267 268 267 265 264 265 267 268 270 270 269 268 267 268 268 271 273 274 277 278 279 281 281 283 284 284 286 286 287 287 287 287 289 290 290 292
269 269 270 269 267 266 267 267 267 267 266 264 265 267 268 269 270 270 269 267 266 267 270 272 274 276 278 281 282 283 283 285 286 286 286 287 287 287 288 288 289 290 293
267 267 268 268 267 267 268 267 266 266 265 265 265 266 267 269 271 271 269 268 268 268 271 272 274 278 280 282 284 285 285 285 287 287 287 287 288 288 288 288 288 290 293
266 266 266 267 268 269 269 267 266 266 266 266 267 268 269 271 272 272 270 270 269 269 272 275 275 278 281 284 284 285 286 287 288 288 288 288 288 289 289 289 290 291 294
265 265 266 267 269 268 268 268 268 268 267 267 268 268 269 271 272 271 270 270 271 271 272 274 276 279 281 283 285 286 287 287 287 288 289 290 291 291 290 290 292 293 294
266 265 265 267 268 269 269 268 268 269 268 267 267 267 268 269 270 271 271 270 272 273 273 275 277 279 281 283 284 285 287 288 288 288 289 291 292 291 290 291 292 293 294
268 266 266 265 267 269 271 271 270 270 270 268 267 266 267 269 269 269 271 272 272 273 275 277 279 281 281 282 284 286 287 288 288 289 290 290 290 290 290 292 293 294 296
268 267 266 266 266 268 270 271 271 271 271 271 270 268 267 267 268 269 271 273 273 274 276 278 279 280 281 282 285 287 288 288 289 290 291 291 291 291 291 293 294 296 298
265 265 265 265 265 266 269 271 272 272 272 270 268 267 266 267 268 269 271 273 274 275 276 278 278 278 280 282 285 286 287 289 289 291 292 292 293 293 293 294 296 298 299
263 263 264 264 265 267 269 271 272 272 271 269 267 267 268 269 270 271 273 274 276 276 277 277 278 278 281 283 285 287 288 289 290 291 292 293 293 294 295 296 298 299 300
262 262 264 264 265 266 268 270 271 271 271 269 267 268 270 271 271 272 274 276 277 278 277 276 277 278 282 285 287 287 289 289 290 291 293 294 295 295 297 298 300 301 302
264 264 264 265 266 267 268 269 269 269 269 268 268 269 271 273 273 273 274 276 276 277 277 279 281 282 284 286 286 287 288 289 289 291 293 295 295 296 297 299 300 300 301
265 264 264 266 265 265 266 268 268 268 268 268 267 269 271 273 273 273 273 273 274 276 278 281 283 284 285 286 286 288 289 290 290 291 293 295 297 298 298 300 300 300 301
265 265 265 265 264 265 265 266 267 267 267 267 266 268 269 270 272 272 271 271 274 277 279 282 284 286 286 287 288 288 289 290 292 293 294 295 297 299 300 300 300 301 301
267 266 266 264 263 263 264 266 266 266 267 266 265 267 267 269 271 272 271 272 276 281 283 284 284 286 286 285 286 288 289 291 294 295 295 295 297 299 301 302 304 304 304
265 264 263 262 261 262 263 265 266 266 265 264 266 268 268 268 269 269 271 274 278 281 283 284 284 284 285 286 287 288 291 293 294 295 297 297 297 298 300 302 304 307 307
Height
5623 5623 5623 5623 5622 5623 5624 5624 5625 5626 5627 5628 5629 5629 5630 5631 5632 5634 5636 5637 5638 5639 5639 5640 5640 5640 5640 5641 5640 5640 5639 5639 5639 5638 5636 5635 5633 5632 5630 5628 5627 5625 5623
5613 5613 5612 5612 5612 5612 5613 5614 5615 5616 5617 5618 5618 5619 5620 5621 5622 5623 5625 5626 5627 5628 5628 5629 5629 5629 5629 5629 5629 5629 5628 5627 5627 5626 5625 5623 5621 5619 5618 5616 5614 5612 5610
5603 5602 5602 5602 5602 5603 5603 5604 5605 5606 5607 5607 5608 5609 5609 5610 5611 5612 5614 5615 5616 5616 5617 5617 5618 5618 5618 5618 5618 5617 5617 5616 5615 5614 5613 5611 5609 5607 5606 5604 5602 5600 5597
5593 5592 5592 5592 5593 5593 5594 5594 5595 5596 5597 5598 5598 5599 5599 5600 5601 5602 5603 5604 5605 5606 5606 5606 5607 5607 5607 5607 5606 5606 5606 5605 5604 5603 5601 5600 5598 5596 5594 5592 5591 5588 5586
5584 5583 5583 5583 5583 5584 5585 5585 5586 5586 5587 5588 5589 5589 5590 5590 5591 5592 5593 5594 5594 5595 5595 5596 5596 5596 5596 5596 5596 5595 5595 5594 5593 5592 5590 5589 5587 5585 5583 5581 5579 5577 5575
5575 5574 5574 5574 5574 5575 5575 5575 5576 5577 5577 5578 5579 5579 5580 5581 5581 5582 5583 5584 5584 5585 5586 5586 5586 5586 5586 5586 5585 5585 5584 5583 5582 5581 5580 5578 5576 5574 5572 5570 5568 5566 5565
5566 5566 5565 5565 5565 5565 5566 5566 5567 5567 5567 5568 5569 5570 5571 5571 5572 5572 5573 5574 5575 5575 5576 5576 5577 5576 5576 5576 5575 5574 5574 5572 5571 5571 5569 5567 5566 5564 5562 5560 5557 5555 5553
5558 5557 5557 5556 5556 5557 5557 5557 5558 5558 5558 5559 5560 5561 5562 5562 5562 5563 5564 5564 5565 5566 5566 5567 5567 5567 5567 5566 5565 5564 5563 5562 5561 5560 5559 5557 5555 5553 5551 5549 5547 5546 5543
5549 5549 5548 5548 5548 5549 5549 5549 5549 5550 5550 5550 5551 5552 5553 5553 5554 5554 5555 5556 5556 5557 5558 5558 5558 5558 5558 5557 5556 5555 5554 5552 5551 5549 5548 5546 5544 5542 5540 5538 5537 5535 5533
5540 5539 5540 5540 5540 5540 5540 5541 5541 5541 5542 5542 5543 5544 5544 5545 5545 5546 5546 5547 5548 5549 5549 5550 5549 5549 5548 5547 5546 5545 5544 5543 5541 5540 5538 5536 5533 5531 5530 5528 5526 5524 5522
5531 5531 5531 5531 5532 5532 5532 5532 5533 5533 5534 5534 5535 5536 5536 5537 5537 5537 5538 5538 5539 5540 5540 5541 5541 5540 5539 5538 5537 5536 5535 5533 5532 5530 5529 5526 5524 5522 5520 5518 5516 5513 5511
5522 5522 5523 5523 5523 5524 5524 5525 5525 5525 5525 5526 5527 5527 5528 5528 5529 5529 5529 5530 5531 5531 5532 5532 5532 5531 5530 5529 5528 5526 5525 5524 5522 5521 5519 5517 5515 5513 5511 5508 5506 5503 5501
5514 5514 5515 5515 5515 5516 5516 5516 5517 5517 5518 5518 5519 5519 5520 5520 5520 5520 5521 5521 5522 5523 5523 5523 5523 5522 5521 5520 5519 5517 5516 5514 5513 5511 5510 5508 5505 5503 5501 5499 5496 5494 5492
5505 5506 5507 5507 5507 5507 5507 5508 5509 5509 5510 5510 5511 5511 5512 5512 5512 5512 5513 5513 5514 5514 5514 5514 5513 5513 5512 5511 5509 5508 5506 5505 5503 5502 5500 5498 5495 5493 5491 5489 5487 5485 5483
5497 5498 5498 5499 5500 5500 5500 5500 5500 5501 5501 5502 5503 5503 5504 5504 5504 5504 5504 5505 5505 5505 5505 5505 5505 5504 5503 5502 5500 5499 5497 5496 5494 5492 5490 5488 5486 5484 5482 5480 5478 5476 5474
5489 5490 5491 5491 5492 5492 5492 5492 5492 5493 5493 5493 5494 5494 5495 5495 5495 5495 5496 5496 5496 5496 5496 5496 5496 5495 5494 5493 5492 5491 5489 5487 5485 5483 5481 5479 5477 5475 5474 5472 5469 5467 5465
5481 5482 5483 5483 5484 5484 5484 5484 5485 5485 5485 5485 5485 5486 5486 5487 5487 5487 5488 5488 5488 5487 5487 5487 5487 5486 5486 5485 5484 5482 5481 5479 5477 5475 5473 5471 5469 5468 5466 5464 5462 5459 5457
5473 5474 5475 5476 5476 5477 5477 5477 5477 5477 5477 5477 5477 5477 5478 5479 5479 5479 5479 5479 5479 5479 5479 5479 5479 5478 5477 5477 5476 5474 5473 5471 5469 5468 5466 5464 5462 5460 5458 5456 5454 5452 5450
5466 5467 5467 5468 5468 5469 5469 5469 5469 5469 5469 5469 5469 5469 5470 5471 5471 5471 5472 5472 5472 5472 5471 5471 5471 5470 5470 5469 5468 5467 5466 5464 5463 5461 5459 5457 5455 5453 5451 5449 5447 5445 5443
5459 5459 5460 5461 5461 5461 5462 5462 5461 5461 5461 5461 5461 5462 5463 5463 5464 5464 5465 5465 5465 5465 5464 5464 5464 5463 5463 5462 5461 5460 5459 5457 5456 5454 5452 5450 5448 5447 5445 5443 5441 5439 5437
5452 5452 5453 5453 5454 5454 5454 5454 5454 5454 5454 5454 5455 5455 5456 5457 5457 5458 5458 5458 5458 5458 5458 5457 5457 5457 5456 5455 5454 5453 5452 5451 5449 5448 5446 5444 5442 5441 5439 5437 5435 5433 5431
5445 5446 5446 5447 5447 5447 5447 5447 5448 5448 5448 5448 5448 5449 5450 5450 5451 5451 5451 5451 5451 5451 5451 5451 5451 5450 5450 5449 5448 5447 5446 5445 5443 5442 5440 5439 5437 5435 5433 5432 5430 5428 5427
5439 5439 5440 5440 5440 5441 5441 5441 5442 5442 5442 5442 5443 5443 5444 5444 5444 5445 5445 5445 5445 5446 5446 5445 5445 5445 5444 5443 5442 5441 5440 5439 5438 5437 5435 5434 5432 5430 5429 5427 5426 5424 5423
5432 5433 5433 5434 5434 5435 5435 5436 5436 5436 5437 5437 5437 5438 5438 5439 5439 5439 5440 5440 5440 5440 5440 5440 5439 5439 5438 5437 5436 5436 5435 5434 5433 5432 5430 5429 5427 5426 5424 5423 5421 5420 5419
5427 5427 5428 5428 5429 5430 5430 5430 5431 5431 5431 5432 5432 5433 5433 5434 5434 5434 5435 5435 5435 5435 5435 5434 5434 5433 5433 5432 5431 5431 5430 5429 5428 5427 5425 5424 5423 5422 5420 5419 5418 5416 5415
5422 5422 5423 5423 5424 5424 5425 5425 5426 5426 5426 5427 5427 5428 5428 5429 5429 5430 5430 5430 5430 5430 5430 5429 5429 5428 5428 5427 5427 5426 5425 5424 5423 5422 5421 5420 5419 5418 5417 5416 5415 5413 5412